Вернуться в каталог

STARLINK-6192

АктивенСвязьVLEO
NORAD 56903·PAYLOAD·🇺🇸 United States

Запущен Jun 12, 2023 с Cape Canaveral Space Force Station

Loading…

Ближайшие Пролёты (ближайшие 24 часа)

TLE

СвежийSource: CelesTrak SupGP

Эпоха: Sep 14, 2026, 20:54 UTC

1 56903C 23083AD  26257.87131944  .00006629  00000+0  24013-3 0  2570
2 56903  43.0019  93.1827 0001364 267.6395 162.7894 15.27569634    10

Отслеживайте STARLINK-6192 в реальном времени с AllMySat

Download on the App Store